Location: West Sayville
(40.7279°N, 73.0976°W)
Time: 09:40:03
(UTC+00:00)

Okean-O - Pass Details

Date: 29 October 2020
Orbit: 638 x 641 km, 98.2° (Epoch: 23 November)

Event Time Altitude Azimuth Distance (km) Brightness Sun altitude
Rises 22:50:22 0° 146° (SSE) 2,933 5.8 -11.7°
Reaches altitude 10° 22:52:40 10° 139° (SE) 2,028 4.9 -12.1°
Maximum altitude 22:56:46 39° 71° (ENE) 967 3.1 -12.9°
Drops below altitude 10° 23:00:53 10° 3° (N) 2,041 5.1 -13.6°
Sets 23:03:12 0° 356° (N) 2,954 6.0 -14.1°
